User: anonymous   Login
Location: Fisheating Creek Campgrounds
(26.9333°N, 81.3167°W)
Time: 18:33:50
(UTC-04:00)
Language:

Cosmos 2221 Rocket - Orbit

View from above orbital plane
View from above orbital plane
View from above satellite
View from above satellite

Ground track
Ground track

The orbit data is extracted from the following two-line orbital elements,

1 22237U 92080B   15126.54572505  .00000251  00000-0  31497-4 0  9999
2 22237 082.5100 116.3782 0019006 207.7710 265.4104 14.78122601209298
Epoch (UTC): 06 May 2015 13:05:50
Eccentricity: 0.0019006
inclination: 82.5100°
perigee height: 622 km
apogee height: 648 km
right ascension of ascending node: 116.3782°
argument of perigee: 207.7710°
revolutions per day: 14.78122601
mean anomaly at epoch: 265.4104°
orbit number at epoch: 20929

The dashed part of the orbit path shows where the satellite is in the earth's shadow,  

DLR